マックホルツ彗星

C/1988 P1 ( Machholz )

English version
Home page
Updated on November 10, 2002

---------------------------------------------------------------------

・ プロフィール

発見日 1988年8月6日
発見光度 8.6等
発見者 Donald E. Machholz (Loma Prieta, CA)

・ 軌道要素

     T = 1988 Sept.17.589 ET          Peri. = 348.971
                                      Node  = 166.999   1950.0
     q = 0.16517 AU                   Incl. =  40.175

・ 光度変化

        m1 =  8.2 + 5 logΔ +  9.3 log r  [   ,-19]  (              〜1988年 8月29日)
        m1 =  6.0 + 5 logΔ -  3   log r  [-19,  0]  (1988年 8月29日〜1988年 9月17日)
        m1 =  8.5 + 5 logΔ +  0   log r  [  0, 10]  (1988年 9月17日〜1988年 9月27日)
        m1 = 19   + 5 logΔ + 27   log r  [ 10,   ]  (1988年 9月27日〜              )

        ※ 灰色の曲線は、m1 = 8.2 + 5 logΔ + 9.3 log r の光度曲線です。

---------------------------------------------------------------------

軌道要素はIAUC 4643に掲載されたものです。
光度グラフはComet for Windowsで作成したものです。

---------------------------------------------------------------------

Copyright(C) Seiichi Yoshida (comet@aerith.net). All rights reserved.